1275696031489,22.8333
1275696088865,22.8175
1275696148865,22.8900
1275696208865,22.7330
1275696268865,22.7493
1275696328865,22.8895
1275696388865,22.8148
1275696448864,22.8975
1275696508864,22.8367
1275696568864,22.7753
1275696628864,22.8074
1275696688864,22.8583
1275696748864,22.8124
1275696808864,22.8116
1275696868864,22.8541
1275696928864,22.7524
1275696988865,22.8714
1275697048865,22.8521
1275697108864,22.7819
1275697168864,22.7639
1275697228864,22.8188
1275697288864,22.9038
1275697348865,22.8067
1275697408865,22.8254
1275697468865,22.7658
1275697528865,22.8327
1275697588865,22.8360
1275697648865,22.7123
1275697708865,22.8368
1275697768864,22.8126
1275697828864,22.7402
1275697888864,22.7026
1275697948864,22.7542
1275698008864,22.7558
1275698068864,22.7629
1275698128864,22.7428
1275698188864,22.7943
1275698248864,22.8313
1275698308864,22.8517
1275698368865,22.7073
1275698428864,22.7743
1275698488864,22.8191
1275698548864,22.8533
1275698608864,22.8103
1275698668865,22.7754
1275698728865,22.8125
1275698788865,22.9086
1275698848865,22.8119
1275698908865,22.8931
1275698968865,22.7709
1275699028865,22.8863
1275699088865,22.8636
1275699148864,22.8243
1275699208864,22.8357
1275699268864,22.8964
1275699328864,22.8649
1275699388864,22.8483
1275699448864,22.9023
1275699508864,22.7813
1275699568864,22.8260
1275699628062,22.8441
1275699692739,22.7687
1275699752739,22.8935
1275699812739,22.7455
1275699872739,22.8716
1275699932739,22.8733
1275699992739,22.7554
1275700052739,22.8169
1275700112739,22.7771
1275700172739,22.8204
1275700232739,22.8695
1275700292739,22.8359
1275700352739,22.8084
1275700412739,22.8424
1275700472739,22.8119
1275700532739,22.7945
1275700592739,22.8228
1275700652739,22.8809
1275700712739,22.8283
1275700772739,22.8578
1275700832739,22.8524
1275700892739,22.7852
1275700952739,22.8807
1275701012739,22.8383
1275701072739,22.8976
1275701132739,22.8591
1275701192739,22.7996
1275701252739,22.8203
1275701312739,22.8390
1275701372739,22.8212
1275701432739,22.8761
1275701492739,22.8075
1275701552739,22.8104
1275701612739,22.7884
1275701672739,22.8061
1275701732739,22.8728
1275701792739,22.8273
1275701852739,22.7393
1275701912739,22.7843
1275701972739,22.8323
1275702032739,22.8779
1275702092739,22.7896
1275702152739,22.7561
1275702212739,22.8015
1275702272739,22.8584
1275702332739,22.7956
1275702392739,22.8012
1275702452739,22.8157
1275702512739,22.7771
1275702572739,22.7548
1275702632739,22.8252
1275702692739,22.7321
1275702752739,22.7934
1275702812739,22.8049
1275702872739,22.7607
1275702932739,22.7663
1275702992739,22.8073
1275703052739,22.8396
1275703112739,22.8186
1275703172739,22.7235
1275703232749,22.7860
1275703292749,22.8526
1275703352749,22.7446
1275703412749,22.7957
1275703472749,22.7632
1275703532749,22.8045
1275703592749,22.7368
1275703652749,22.7652
1275703712749,22.7232
1275703772749,22.7387
1275703832749,22.8928
1275703892749,22.7738
1275703952749,22.7610
1275704012749,22.7089
1275704072749,22.7454
1275704132749,22.7348
1275704192749,22.7766
1275704252749,22.7974
1275704312749,22.7926
1275704372749,22.8454
1275704432749,22.7325
1275704492749,22.7466
1275704552749,22.7367
1275704612749,22.7588
1275704672749,22.7498
1275704732749,22.7538
1275704792749,22.6959
1275704852749,22.7337
1275704912749,22.8071
1275704972749,22.6690
1275705032749,22.7692
1275705092749,22.7301
1275705152749,22.7817
1275705212749,22.7809
1275705272749,22.8029
1275705332749,22.7055
1275705392749,22.7104
1275705452749,22.6860
1275705512749,22.6630
1275705572749,22.6793
1275705632749,22.6008
1275705692749,22.7067
1275705752749,22.6479
1275705812749,22.6928
1275705872749,22.6044
1275705932749,22.6603
1275705992749,22.7210
1275706052749,22.6654
1275706112749,22.6404
1275706172749,22.7099
1275706232749,22.6217
1275706292749,22.6519
1275706352749,22.6607
1275706412749,22.6082
1275706472749,22.5957
1275706532749,22.6286
1275706592749,22.6186
1275706652749,22.7012
1275706712749,22.6420
1275706772749,22.6731
1275706832758,22.6251
1275706892758,22.6049
1275706952758,22.6620
1275707012758,22.6045
1275707072758,22.6701
1275707132758,22.6401
1275707192758,22.5975
1275707252758,22.6024
1275707312758,22.6904
1275707372758,22.5986
1275707432758,22.5809
1275707492758,22.5905
1275707552758,22.5599
1275707612758,22.6023
1275707672758,22.6065
1275707732758,22.5231
1275707792758,22.6129
1275707852758,22.5982
1275707912758,22.5304
1275707972758,22.5823
1275708032758,22.5382
1275708092758,22.6253
1275708152758,22.5723
1275708212758,22.5347
1275708272758,22.5678
1275708332758,22.5197
1275708392758,22.5532
1275708452758,22.5935
1275708512758,22.5523
1275708572758,22.5882
1275708632758,22.5527
1275708692758,22.5507
1275708752758,22.6023
1275708812758,22.5577
1275708872758,22.5739
1275708932758,22.5405
1275708992758,22.5593
1275709052758,22.5905
1275709112758,22.5558
1275709172758,22.5990
1275709232758,22.5670
1275709292758,22.5718
1275709352758,22.5641
1275709412758,22.5758
1275709472758,22.5678
1275709532758,22.5264
1275709592758,22.5792
1275709652758,22.5192
1275709712758,22.5795
1275709772758,22.5975
1275709832758,22.5687
1275709892758,22.5573
1275709952758,22.6564
1275710012758,22.5431
1275710072758,22.5854
1275710132758,22.6297
1275710192758,22.5444
1275710252758,22.6185
1275710312758,22.5429
1275710372758,22.6029
1275710432767,22.6593
1275710492767,22.5818
1275710552767,22.5754
1275710612767,22.5684
1275710672767,22.6492
1275710732767,22.5684
1275710792767,22.5336
1275710852767,22.6171
1275710912767,22.6312
1275710972767,22.5430
1275711032767,22.5508
1275711092767,22.5881
1275711152767,22.5546
1275711212767,22.5812
1275711272767,22.5590
1275711332767,22.5416
1275711392767,22.5787
1275711452767,22.5490
1275711512767,22.5904
1275711572767,22.5946
1275711632767,22.6270
1275711692767,22.5682
1275711752767,22.5258
1275711812767,22.5704
1275711872767,22.6561
1275711932767,22.5576
1275711992767,22.5408
1275712052767,22.5341
1275712112767,22.5743
1275712172767,22.6344
1275712232767,22.5623
1275712292767,22.6142
1275712352767,22.6073
1275712412767,22.7446
1275712472767,22.5548
1275712532767,22.6204
1275712592767,22.6276
1275712652767,22.6132
1275712712767,22.5721
1275712772767,22.6147
1275712832767,22.6238
1275712892767,22.6291
1275712952767,22.6172
1275713012767,22.6676
1275713072767,22.5862
1275713132767,22.5260
1275713192767,22.6475
1275713252767,22.6009
1275713312767,22.5681
1275713372767,22.6087
1275713432767,22.5639
1275713492767,22.6094
1275713552767,22.5921
1275713612767,22.6385
1275713672767,22.5630
1275713732767,22.5815
1275713792767,22.5325
1275713852767,22.5893
1275713912767,22.5539
1275713972767,22.6424
1275714032776,22.5702
1275714092776,22.6256
1275714152776,22.5588
1275714212776,22.6215
1275714272776,22.5687
1275714332776,22.5981
1275714392776,22.6836
1275714452776,22.7199
1275714512776,22.6452
1275714572776,22.6754
1275714632776,22.6643
1275714692776,22.5551
1275714752776,22.6681
1275714812776,22.5723
1275714872776,22.6033
1275714932776,22.5853
1275714992776,22.6618
1275715052776,22.5953
1275715112776,22.5802
1275715172776,22.6070
1275715232776,22.7096
1275715292776,22.7111
1275715352776,22.6484
1275715412776,22.6812
1275715472776,22.6189
1275715532776,22.6187
1275715592776,22.5941
1275715652776,22.6613
1275715712776,22.6397
1275715772776,22.6406
1275715832776,22.6213
1275715892776,22.6147
1275715952776,22.5935
1275716012776,22.6190
1275716072776,22.5692
1275716132776,22.6066
1275716192776,22.5988
1275716252776,22.6530
1275716312776,22.5603
1275716372776,22.6210
1275716432776,22.6630
1275716492776,22.6208
1275716552776,22.6233
1275716612776,22.6923
1275716672776,22.5885
1275716732776,22.6636
1275716792776,22.6230
1275716852776,22.6715
1275716912776,22.6279
1275716972776,22.6663
1275717032776,22.6454
1275717092776,22.6206
1275717152776,22.6079
1275717212776,22.6364
1275717272776,22.5611
1275717332776,22.6723
1275717392776,22.6379
1275717452776,22.5971
1275717512776,22.6039
1275717572776,22.6425
1275717632785,22.6001
1275717692785,22.5594
1275717752785,22.5795
1275717812785,22.5506
1275717872785,22.5753
1275717932785,22.5396
1275717992785,22.6020
1275718052785,22.5155
1275718112785,22.5805
1275718172785,22.5491
1275718232785,22.5849
1275718292785,22.5817
1275718352785,22.5207
1275718412785,22.5140
1275718472785,22.5965
1275718532785,22.5580
1275718592785,22.5807
1275718652785,22.5449
1275718712785,22.4675
1275718772785,22.5162
1275718832785,22.5557
1275718892785,22.6042
1275718952785,22.6123
1275719012785,22.5343
1275719072785,22.5866
1275719132785,22.5900
1275719192785,22.5699
1275719252785,22.6318
1275719312785,22.5452
1275719372785,22.5448
1275719432785,22.5517
1275719492785,22.4311
1275719552785,22.5532
1275719612785,22.5656
1275719672785,22.5492
1275719732785,22.5965
1275719792785,22.6415
1275719852785,22.6013
1275719912785,22.6911
1275719972785,22.5577
1275720032785,22.6133
1275720092785,22.5938
1275720152785,22.5899
1275720212785,22.5927
1275720272785,22.6235
1275720332785,22.6070
1275720392785,22.6008
1275720452785,22.5939
1275720512785,22.6573
1275720572785,22.6486
1275720632785,22.6466
1275720692785,22.6692
1275720752785,22.5902
1275720812785,22.5750
1275720872785,22.5926
1275720932785,22.6189
1275720992785,22.6453
1275721052785,22.6837
1275721112785,22.6711
1275721172785,22.6412
1275721232793,22.6655
1275721292793,22.6711
1275721352793,22.5816
1275721412793,22.5177
1275721472793,22.6446
1275721532793,22.6207
1275721592793,22.5700
1275721652793,22.6429
1275721712793,22.6733
1275721772793,22.5965
1275721832793,22.6141
1275721892793,22.6213
1275721952793,22.6077
1275722012793,22.5879
1275722072793,22.5944
1275722132793,22.6521
1275722192793,22.6052
1275722252793,22.6490
1275722312793,22.6545
1275722372793,22.5237
1275722432793,22.6022
1275722492793,22.6822
1275722552793,22.6515
1275722612793,22.6827
1275722672793,22.6216
1275722732793,22.5437
1275722792793,22.6808
1275722852793,22.7310
1275722912793,22.6126
1275722972793,22.5858
1275723032793,22.5936
1275723092793,22.5655
1275723152793,22.6056
1275723212793,22.6697
1275723272793,22.6506
1275723332793,22.6907
1275723392793,22.5553
1275723452793,22.5980
1275723512793,22.6988
1275723572793,22.6650
1275723632793,22.5863
1275723692793,22.6763
1275723752793,22.6607
1275723812793,22.6752
1275723872793,22.6037
1275723932793,22.5464
1275723992793,22.5998
1275724052793,22.5931
1275724112793,22.6361
1275724172793,22.6180
1275724232793,22.6132
1275724292793,22.6069
1275724352793,22.5866
1275724412793,22.5991
1275724472793,22.5739
1275724532793,22.6783
1275724592793,22.4696
1275724652793,22.6533
1275724712793,22.6225
1275724772793,22.5681
1275724832802,22.5721
1275724892802,22.5365
1275724952802,22.5500
1275725012802,22.5666
1275725072802,22.5674
1275725132802,22.5923
1275725192802,22.5712
1275725252802,22.6186
1275725312802,22.5659
1275725372802,22.5484
1275725432802,22.5757
1275725492802,22.5667
1275725552802,22.5583
1275725612802,22.5859
1275725672802,22.5575
1275725732802,22.5305
1275725792802,22.5652
1275725852802,22.5332
1275725912802,22.5521
1275725972802,22.5456
1275726032802,22.4854
1275726092802,22.5578
1275726152802,22.5602
1275726212802,22.4693
1275726272802,22.5878
1275726332802,22.5965
1275726392802,22.5819
1275726452802,22.5611
1275726512802,22.5224
1275726572802,22.6179
1275726632802,22.5790
1275726692802,22.5561
1275726752802,22.5747
1275726812802,22.5579
1275726872802,22.5013
1275726932802,22.5972
1275726992802,22.5264
1275727052802,22.5676
1275727112802,22.4976
1275727172802,22.5415
1275727232802,22.5625
1275727292802,22.5835
1275727352802,22.5229
1275727412802,22.5117
1275727472802,22.5999
1275727532802,22.5150
1275727592802,22.4923
1275727652802,22.5663
1275727712802,22.5211
1275727772802,22.5417
1275727832802,22.5227
1275727892802,22.5917
1275727952802,22.6143
1275728012802,22.5205
1275728072802,22.5020
1275728132802,22.5864
1275728192802,22.4696
1275728252802,22.4932
1275728312802,22.5711
1275728372802,22.4868
1275728432810,22.5299
1275728492810,22.5602
1275728552810,22.5157
1275728612810,22.5371
1275728672810,22.4754
1275728732810,22.5812
1275728792810,22.4429
1275728852810,22.4822
1275728912810,22.4710
1275728972810,22.4429
1275729032810,22.4965
1275729092810,22.5391
1275729152810,22.4655
1275729212810,22.5566
1275729272810,22.5193
1275729332810,22.4730
1275729392810,22.5082
1275729452810,22.5544
1275729512810,22.4886
1275729572810,22.5250
1275729632810,22.4741
1275729692810,22.4941
1275729752810,22.4652
1275729812810,22.4582
1275729872810,22.4373
1275729932810,22.4895
1275729992810,22.4613
1275730052810,22.5201
1275730112810,22.4467
1275730172810,22.5206
1275730232810,22.5137
1275730292810,22.4081
1275730352810,22.4633
1275730412810,22.5033
1275730472810,22.4257
1275730532810,22.5330
1275730592810,22.4596
1275730652810,22.4709
1275730712810,22.4655
1275730772810,22.4789
1275730832810,22.5407
1275730892810,22.4908
1275730952810,22.5040
1275731012810,22.5043
1275731072810,22.4962
1275731132810,22.5125
1275731192810,22.4520
1275731252810,22.5290
1275731312810,22.5511
1275731372810,22.5095
1275731432810,22.5330
1275731492810,22.5522
1275731552810,22.4962
1275731612810,22.5879
1275731672810,22.5694
1275731732810,22.5512
1275731792810,22.6686
1275731852810,22.6068
1275731912810,22.5565
1275731972810,22.5247
1275732032818,22.6543
1275732092818,22.5570
1275732152818,22.5739
1275732212818,22.6714
1275732272818,22.6477
1275732332818,22.6076
1275732392818,22.5487
1275732452818,22.5719
1275732512818,22.5796
1275732572818,22.5362
1275732632818,22.5771
1275732692818,22.5657
1275732752818,22.5705
1275732812818,22.6952
1275732872818,22.5364
1275732932818,22.5694
1275732992818,22.5623
1275733052818,22.5094
1275733112818,22.5562
1275733172818,22.5542
1275733232818,22.5619
1275733292818,22.5799
1275733352818,22.5135
1275733412818,22.5026
1275733472818,22.5935
1275733532818,22.5612
1275733592818,22.4414
1275733652818,22.5014
1275733712818,22.4660
1275733772818,22.4700
1275733832818,22.4578
1275733892818,22.4575
1275733952818,22.4373
1275734012818,22.4818
1275734072818,22.4577
1275734132818,22.4463
1275734192818,22.3526
1275734252818,22.4220
1275734312818,22.4744
1275734372818,22.4012
1275734432818,22.4309
1275734492818,22.3640
1275734552818,22.4428
1275734612818,22.4167
1275734672818,22.4316
1275734732818,22.4488
1275734792818,22.4321
1275734852818,22.4962
1275734912818,22.4143
1275734972818,22.4360
1275735032818,22.4017
1275735092818,22.4951
1275735152818,22.4073
1275735212818,22.4956
1275735272818,22.4627
1275735332818,22.5578
1275735392818,22.4292
1275735452818,22.5624
1275735512818,22.5564
1275735572818,22.4980
1275735632827,22.4538
1275736232827,22.4749
1275736292827,22.2289
1275736352827,22.4421
1275736412827,22.4726
1275736472827,22.4308
1275736532827,22.4447
1275736592827,22.5134
1275736652827,22.4014
1275736712827,22.4258
1275736772827,22.4505
1275736832827,22.4892
1275736892827,22.5166
1275736952827,22.4862
1275737012827,22.4653
1275737072827,22.5679
1275737132827,22.5082
1275737192827,22.4498
1275737252827,22.4430
1275737312827,22.4616
1275737372827,22.4258
1275737432827,22.5218
1275737492827,22.5200
1275737552827,22.4701
1275737612827,22.5045
1275737672827,22.4777
1275737732827,22.4004
1275737792827,22.5389
1275737852827,22.4970
1275737912827,22.6008
1275737972827,22.5286
1275738032827,22.4557
1275738092827,22.4718
1275738152827,22.4250
1275738212827,22.4921
1275738272827,22.5460
1275738332827,22.5496
1275738392827,22.4179
1275738452827,22.4675
1275738512827,22.4998
1275738572827,22.5670
1275738632827,22.4649
1275738692827,22.5072
1275738752827,22.5603
1275738812827,22.4763
1275738872827,22.4410
1275738932827,22.5073
1275738992827,22.4936
1275739052827,22.4764
1275739112827,22.4605
1275739172827,22.4870
1275742832843,22.4776
1275742892843,22.5036
1275742952843,22.5119
1275743012843,22.4653
1275743072843,22.5843
1275743132843,22.5881
1275743192843,22.4541
1275743252843,22.5710
1275743312843,22.5063
1275743372843,22.5210
1275743432843,22.5118
1275743492843,22.5422
1275743552843,22.5330
1275743612843,22.4682
1275743672843,22.4756
1275743732843,22.5274
1275743792843,22.5331
1275743852843,22.5235
1275743912843,22.5977
1275743972843,22.5722
1275744032843,22.4860
1275744092843,22.5189
1275744152843,22.5137
1275744212843,22.4897
1275744272843,22.4797
1275744332843,22.5417
1275744392843,22.4826
1275744452843,22.4365
1275744512843,22.5178
1275744572843,22.5181
1275744632843,22.4599
1275744692843,22.5336
1275744752843,22.5401
1275744812843,22.4758
1275744872843,22.4200
1275744932843,22.5008
1275744992843,22.4639
1275745052843,22.5092
1275745112843,22.4465
1275745172843,22.5199
1275745232843,22.4242
1275745292843,22.5506
1275745352843,22.4513
1275745412843,22.4453
1275745472843,22.4529
1275745532843,22.7473
1275745592843,22.5917
1275745652843,22.5757
1275745712843,22.5285
1275745772843,22.5205
1275745832843,22.5334
1275745892843,22.5043
1275745952843,22.5478
1275746012843,22.5840
1275746072843,22.5257
1275746132843,22.5795
1275746192843,22.5244
1275746252843,22.5559
1275746312843,22.5205
1275746372843,22.5861
1275746432852,22.5706
1275746492852,22.5154
1275746552852,22.5504
1275746612852,22.4638
1275746672852,22.4403
1275746732852,22.5714
1275746792852,22.5420
1275746852852,22.5725
1275746912852,22.5789
1275746972852,22.4931
1275747032852,22.5546
1275747092852,22.5970
1275747152852,22.5733
1275747212852,22.5840
1275747272852,22.6112
1275747332852,22.6021
1275747392852,22.5715
1275747452852,22.5661
1275747512852,22.5639
1275747572852,22.5794
1275747632852,22.5496
1275747692852,22.5832
1275747752852,22.5976
1275747812852,22.5484
1275747872852,22.5702
1275747932852,22.5671
1275747992852,22.5846
1275748052852,22.6021
1275748112852,22.5947
1275748172852,22.5731
1275748232852,22.5036
1275748292852,22.5103
1275748352852,22.5858
1275748412852,22.5490
1275748472852,22.5657
1275748532852,22.5240
1275748592852,22.5701
1275748652852,22.9680
1275748712852,22.6015
1275748772852,22.5600
1275748832852,22.5288
1275748892852,22.5767
1275748952852,22.6645
1275749012852,22.5930
1275749072852,22.5112
1275749132852,22.6269
1275749192852,22.5180
1275749252852,22.5828
1275749312852,22.5338
1275749372852,22.6296
1275749432852,22.6210
1275749492852,22.5725
1275749552852,22.6935
1275749612852,22.5125
1275749672852,22.5733
1275749732852,22.6121
1275749792852,22.6087
1275749852852,22.5690
1275749912852,22.6509
1275749972852,22.5648
1275750032860,22.5856
1275750092860,22.5818
1275750152860,22.5558
1275750212860,22.6316
1275750272860,22.5240
1275750332860,22.6011
1275750392860,22.5812
1275750452860,22.6216
1275750512860,22.5918
1275750572860,22.5316
1275750632860,22.5561
1275750692860,22.6077
1275750752860,22.5898
1275750812860,22.6559
1275750872860,22.6388
1275750932860,22.6134
1275750992860,22.5926
1275751052860,22.6229
1275751112860,22.5028
1275751172860,22.5518
1275751232860,22.5847
1275751292860,22.6093
1275751352860,22.5823
1275751412860,22.5513
1275751472860,22.4927
1275751532860,22.6660
1275751592860,22.4824
1275751652860,22.6304
1275751712860,22.8373
1275751772860,22.5801
1275751832860,22.5701
1275751892860,22.5362
1275751952860,22.6329
1275752012860,22.6943
1275752072860,22.5882
1275752132860,22.5802
1275752192860,22.4752
1275752252860,22.6496
1275752312860,22.5449
1275752372860,22.7143
1275752432860,22.5441
1275752492860,22.5094
1275752552860,22.5643
1275752612860,22.5189
1275752672860,22.5082
1275752732860,22.5653
1275752792860,22.5812
1275752852860,22.5180
1275752912860,22.5844
1275752972860,22.5945
1275753032860,22.4970
1275753092860,22.5543
1275753152860,22.5695
1275753212860,22.6606
1275753272860,22.5751
1275753332860,22.5504
1275753392860,22.5633
1275753452860,22.6133
1275753512860,22.5890
1275753572860,22.6174
1275753632868,22.6089
1275753692868,22.6173
1275753752868,22.5077
1275753812868,22.5277
1275753872868,22.6294
1275753932868,22.5629
1275753992868,22.6148
1275754052868,22.5974
1275754112868,22.6234
1275754172868,22.5933
1275754232869,22.6549
1275754292869,22.5040
1275754352869,22.5341
1275754412869,22.5018
1275754472869,22.6035
1275754532868,22.6049
1275754592868,22.5602
1275754652868,22.6458
1275754712868,22.5114
1275754772868,22.5734
1275754832868,22.5417
1275754892868,22.6514
1275754952868,22.6283
1275755012868,22.6185
1275755072868,22.5550
1275755132868,22.6193
1275755192868,22.6592
1275755252868,22.6292
1275755312868,22.6710
1275755372868,22.6281
1275755432868,22.6367
1275755492868,22.6657
1275755552869,22.6533
1275755612869,22.6459
1275755672869,22.7044
1275755732869,22.6429
1275755792869,22.6676
1275755852868,22.6455
1275755912868,22.6168
1275755972868,22.6308
1275756032868,22.7343
1275756092868,22.6959
1275756152868,22.6578
1275756212868,22.6216
1275756272868,22.7408
1275756332868,22.6316
1275756392868,22.6922
1275756452868,22.5845
1275756512868,22.5867
1275756572868,22.5953
1275756632868,22.5785
1275756692868,22.5972
1275756752868,22.5895
1275756812868,22.4971
1275756872868,22.5423
1275756932869,22.5864
1275756992869,22.6784
1275757052869,22.5779
1275757112869,22.6634
1275757172869,22.6006
1275757232877,22.5990
1275757292877,22.5224
1275757352877,22.5503
1275757412877,22.5216
1275757472877,22.4858
1275757532877,22.5128
1275757592877,22.5224
1275757652877,22.6524
1275757712877,22.4692
1275757772877,22.5032
1275757832877,22.4796
1275757892877,22.5588
1275757952877,22.4907
1275758012877,22.4738
1275758072877,22.4205
1275758132877,22.5523
1275758192877,22.4803
1275758252877,22.5856
1275758312877,22.4909
1275758372877,22.5126
1275758432877,22.4727
1275758492877,22.4718
1275758552877,22.5005
1275758612877,22.3863
1275758672877,22.4267
1275758732877,22.4779
1275758792877,22.4915
1275758852877,22.4152
1275758912877,22.4422
1275758972877,22.4080
1275759032877,22.5508
1275759092877,22.5032
1275759152877,22.4898
1275759212877,22.4745
1275759272877,22.3918
1275759332877,22.4166
1275759392877,22.3760
1275759452877,22.4294
1275759512877,22.4283
1275759572877,22.4921
1275759632877,22.4134
1275759692877,22.5395
1275759752877,22.4790
1275759812877,22.4599
1275759872877,22.4043
1275759932877,22.4314
1275759992877,22.4567
1275760052877,22.4772
1275760112877,22.4399
1275760172877,22.4572
1275760232877,22.4386
1275760292877,22.4830
1275760352877,22.3835
1275760412877,22.5048
1275760472877,22.5201
1275760532877,22.4359
1275760592877,22.4406
1275760652877,22.3883
1275760712877,22.4676
1275760772877,22.3889
1275760832886,22.4599
1275760892886,22.4316
1275760952886,22.4185
1275761012886,22.4209
1275761072886,22.4246
1275761132886,22.4184
1275761192886,22.4074
1275761252886,22.4236
1275761312886,22.4769
1275761372886,22.4479
1275761432886,22.3007
1275761492886,22.3403
1275761552886,22.4003
1275761612886,22.4730
1275761672886,22.4249
1275761732886,22.3291
1275761792886,22.3041
1275761852886,22.3853
1275761912886,22.3509
1275761972886,22.3904
1275762032886,22.3637
1275762092886,22.3684
1275762152886,22.4364
1275762212886,22.3751
1275762272886,22.3803
1275762332886,22.2939
1275762392886,22.3531
1275762452886,22.4330
1275762512886,22.3864
1275762572886,22.2979
1275762632886,22.4374
1275762692886,22.3765
1275762752886,22.3797
1275762812886,22.3157
1275762872886,22.4066
1275762932886,22.4003
1275762992886,22.4111
1275763052886,22.3663
1275763112886,22.4336
1275763172886,22.3915
1275763232886,22.3715
1275763292886,22.3264
1275763352886,22.4667
1275763412886,22.4070
1275763472886,22.2596
1275763532886,22.4058
1275763592886,22.4034
1275763652886,22.3003
1275763712886,22.4098
1275763772886,22.3919
1275763832886,22.3816
1275763892886,22.3784
1275763952886,22.3601
1275764012886,22.3435
1275764072886,22.3417
1275764132886,22.3440
1275764192886,22.3015
1275764252886,22.3362
1275764312886,22.2969
1275764372886,22.2351
1275764432895,22.3533
1275764492895,22.2672
1275764552895,22.3089
1275764612895,22.3008
1275764672895,22.3453
1275764732895,22.3264
1275764792895,22.3200
1275764852895,22.2518
1275764912895,22.2552
1275764972895,22.2888
1275765032895,22.2368
1275765092895,22.2738
1275765152895,22.2875
1275765212895,22.3336
1275765272895,22.3267
1275765332895,22.2484
1275765392895,22.2298
1275765452895,22.3327
1275765512895,22.2920